{"data":{"norad_id":56552,"epoch":"2026-09-19T06:09:15.712704Z","epoch_age_seconds":222217,"freshness":"STALE","line1":"1 56552U 23065BB  26262.25643186  .00000866  00000+0  40988-4 0  9994","line2":"2 56552  43.0035 210.5926 0001670 271.6183  88.4478 15.27576958186073","mean_motion":15.27576958,"eccentricity":0.000167,"inclination_deg":43.0035,"raan_deg":210.5926,"arg_perigee_deg":271.6183,"mean_anomaly_deg":88.4478,"bstar":4.0988e-5,"rev_number":18607,"period_min":94.266936435421,"perigee_km":481.9123852979,"apogee_km":484.20402449634,"semimajor_km":6861.1952048971,"source":"CELESTRAK","updated_at":"2026-09-21T09:00:33.479184Z"}}